Location: Heidgraben
(53.7081°N, 9.6576°E)
Time: 03:43:57
(UTC+00:00)

ALOS 2 - Pass Details

Date: 05 July 2020
Orbit: 630 x 632 km, 97.9° (Epoch: 06 August)

Event Time Altitude Azimuth Distance (km) Brightness Sun altitude
Exits shadow 21:58:12 14° 136° (SE) 1,775 4.3 -11.3°
Maximum altitude 22:01:45 45° 67° (ENE) 872 3.3 -11.5°
Drops below altitude 10° 22:05:57 10° 355° (N) 2,028 6.6 -11.7°
Sets 22:08:14 0° 350° (N) 2,940 8.0 -11.8°
